Air Resources Laboratory banner image
Air Resources Laboratory web site National Oceanic and Atmospheric Administration (NOAA)

az roundup


Office: PSR

ASUS45 KPSR 250710
RWRAZ

ARIZONA HOURLY REGIONAL WEATHER ROUNDUP
NATIONAL WEATHER SERVICE PHOENIX AZ
1200 AM MST SUN FEB 25 2018

NOTE: FAIR INDICATES FEW OR NO CLOUDS BELOW 12,000 FEET WITH NO
SIGNIFICANT WEATHER AND/OR OBSTRUCTIONS TO VISIBILITY.

AZZ001>003-036-250800-
NORTHWEST ARIZONA

CITY           SKY/WX    TMP DP  RH WIND       PRES   REMARKS
BULLHEAD CITY  CLEAR     45   0  15 E8        30.14S
KINGMAN        CLEAR     29   2  31 NE5       30.11R WCI  24
$$

AZZ004>008-015-016-018-250800-
NORTH CENTRAL ARIZONA

CITY           SKY/WX    TMP DP  RH WIND       PRES   REMARKS
GRAND CANYON   CLOUDY    23  13  65 SW7       30.03S WCI  15
WILLIAMS       CLOUDY    23   3  42 SW9G15    30.02R WCI  13
PRESCOTT       CLEAR     30  10  43 SW12      30.07S WCI  20
FLAGSTAFF      PTCLDY    18   8  65 CALM      30.02R
PAYSON         CLEAR     28  14  54 CALM      30.06F
PAGE           CLOUDY    36  18  48 W8        30.02S WCI  30
$$

AZZ009>014-017-250800-
NORTHEAST ARIZONA

CITY           SKY/WX    TMP DP  RH WIND       PRES   REMARKS
WINSLOW        CLEAR     31  16  54 SW14      30.03S WCI  21
SAINT JOHNS    PTCLDY    34   8  33 SW15      29.95F WCI  24
WINDOW ROCK    CLOUDY    27  11  51 S3        29.97F
SHOW LOW       CLEAR     27  14  59 S12       30.02F WCI  16
$$

AZZ540-542>544-546-548-250800-
GREATER PHOENIX AREA

CITY           SKY/WX    TMP DP  RH WIND       PRES   REMARKS
PHOENIX        CLEAR     48  19  31 E5        30.10S
BUCKEYE        CLEAR     39  14  35 NE6       30.11S WCI  35
LUKE AFB       CLEAR     41  20  43 N5        30.09S
DEER VALLEY    CLEAR     40  17  39 CALM      30.10S
SCOTTSDALE     CLEAR     42  21  43 CALM      30.12R
MESA-GATEWAY   PTCLDY    39  18  41 MISG      30.13R
$$

AZZ539-553-250800-
SOUTHWEST MARICOPA COUNTY AND PINAL COUNTY

CITY           SKY/WX    TMP DP  RH WIND       PRES   REMARKS
CASA GRANDE    NOT AVBL
GILA BEND      FAIR      44  12  27 S7        30.11R
$$

AZZ503-504-507>509-250800-
SOUTHEAST ARIZONA

CITY           SKY/WX    TMP DP  RH WIND       PRES   REMARKS
TUCSON         CLEAR     42  23  46 SE7       30.12S
DAVIS-MONTHAN  CLEAR     36  24  62 S5        30.10S WCI  32
NOGALES        CLEAR     35  15  44 CALM      30.11F
SIERRA VISTA   CLEAR     35  17  47 S8        30.10F WCI  28
DOUGLAS        CLEAR     27  17  66 SE3       30.11S
SAFFORD        CLEAR     33  21  61 CALM      30.07R
$$

AZZ532-250800-
SOUTHWEST ARIZONA

CITY           SKY/WX    TMP DP  RH WIND       PRES   REMARKS
YUMA           CLEAR     47   7  19 CALM      30.12R
$$

CAZ041-043-047-048-061-525>527-560>570-250800-
SOUTHERN CALIFORNIA

CITY           SKY/WX    TMP DP  RH WIND       PRES   REMARKS
DOWNTOWN L.A.  CLEAR     50  38  63 CALM      30.18F
L.A. AIRPORT   CLEAR     50  37  61 E5        30.19S
SAN DIEGO      CLEAR     52  31  44 CALM      30.22F
BURBANK        CLEAR     47  33  58 NW5       30.17F
ONTARIO        CLEAR     46  31  55 CALM      30.17F
RIVERSIDE      CLEAR     45  31  58 CALM      30.18F
PALM SPRINGS   CLEAR     50  16  25 SW5       30.12S
EL CENTRO NAS  CLEAR     51  14  22 W6        30.12S
IMPERIAL       CLEAR     49  16  26 CALM      30.11R
BLYTHE         CLEAR     46  10  23 CALM      30.12R
NEEDLES        CLEAR     46   2  16 S3        30.14R
$$

NVZ020-UTZ003-250800-
SOUTHERN NEVADA-UTAH

CITY           SKY/WX    TMP DP  RH WIND       PRES   REMARKS
LAS VEGAS      PTCLDY    42  10  27 SW5       30.12R
SALT LAKE CITY MOCLDY    28  20  71 SE7       30.03R WCI  21
$$

NMZ009-TXZ055-250800-
NEW MEXICO-WEST TEXAS

CITY           SKY/WX    TMP DP  RH WIND       PRES   REMARKS
ALBUQUERQUE    PTCLDY    33  10  38 NE6       30.00F WCI  28
EL PASO        CLEAR     44   8  23 W7        30.06S
$$


........................KEY........................
SKY/WX - SKY CONDITION/WEATHER
TMP    - TEMPERATURE IN FAHRENHEIT
DP     - DEW POINT IN FAHRENHEIT
RH     - RELATIVE HUMIDITY IN PERCENT
WIND   - DIRECTION AND SPEED IN MILES PER HOUR (MPH)
VRB    - VARIABLE WIND DIRECTION
PRES   - MEAN SEA LEVEL PRESSURE IN INCHES OF MERCURY
         F - FALLING PRESSURE   R - RISING PRESSURE
         S - STEADY PRESSURE
VSB    - VISIBILITY IN MILES
HX     - HEAT INDEX IN FAHRENHEIT
WCI    - WIND CHILL INDEX IN FAHRENHEIT
TC     - TEMPERATURE IN CELSIUS WHICH IS ALSO KNOWN AS
         TEMPERATURE IN CENTIGRADE
AFB    - AIR FORCE BASE
         LUKE AFB IS LUKE AIR FORCE BASE
         DAVIS-MONTHAN IS DAVIS-MONTHAN AIR FORCE BASE
NAS    - NAVAL AIR STATION
         EL CENTRO NAS IS EL CENTRO NAVAL AIR STATION
N/A    - NOT AVAILABLE